TimeMST,TemperatureF,Dew PointF,Humidity,Sea Level PressureIn,VisibilityMPH,Wind Direction,Wind SpeedMPH,Gust SpeedMPH,PrecipitationIn,Events,Conditions,WindDirDegrees,DateUTC
12:53 AM,21.9,18.0,85,29.81,6.0,SSW,3.5,-,0.00,Snow,Light Snow,200,2012-12-15 07:53:00
1:07 AM,21.2,19.4,93,29.86,2.0,SE,5.8,-,0.00,Snow,Light Snow,140,2012-12-15 08:07:00
1:14 AM,21.2,19.4,93,29.85,1.0,South,4.6,-,0.00,Snow,Light Snow,190,2012-12-15 08:14:00
1:19 AM,21.2,19.4,93,29.85,2.0,SW,5.8,-,0.00,Snow,Light Snow,230,2012-12-15 08:19:00
1:27 AM,21.2,19.4,93,29.85,8.0,Calm,Calm,-,0.00,Snow,Light Snow,0,2012-12-15 08:27:00
1:53 AM,19.9,18.0,92,29.81,10.0,ESE,5.8,-,0.00,,Overcast,110,2012-12-15 08:53:00
2:53 AM,19.9,18.0,92,29.80,6.0,Calm,Calm,-,0.00,Snow,Light Snow,0,2012-12-15 09:53:00
3:10 AM,19.4,17.6,93,29.81,2.5,NE,3.5,-,0.00,Snow,Light Snow,50,2012-12-15 10:10:00
3:17 AM,19.4,19.4,100,29.81,4.0,ENE,3.5,-,0.00,Snow,Light Snow,60,2012-12-15 10:17:00
3:53 AM,19.9,18.0,92,29.75,3.0,Calm,Calm,-,0.00,Snow,Light Snow,0,2012-12-15 10:53:00
4:12 AM,19.4,17.6,93,29.79,8.0,Calm,Calm,-,0.00,Snow,Light Snow,0,2012-12-15 11:12:00
4:18 AM,19.4,17.6,93,29.79,5.0,Calm,Calm,-,0.00,Snow,Light Snow,0,2012-12-15 11:18:00
4:28 AM,21.2,19.4,93,29.79,1.8,SE,4.6,-,0.00,Snow,Light Snow,130,2012-12-15 11:28:00
4:51 AM,21.2,21.2,100,29.79,2.0,SSE,3.5,-,0.01,Snow,Light Snow,150,2012-12-15 11:51:00
4:53 AM,21.9,21.0,96,29.75,2.5,SE,3.5,-,0.01,Snow,Light Snow,140,2012-12-15 11:53:00
5:00 AM,21.2,21.2,100,29.79,5.0,Calm,Calm,-,0.00,Snow,Light Snow,0,2012-12-15 12:00:00
5:05 AM,21.2,21.2,100,29.79,2.5,Calm,Calm,-,0.00,Snow,Light Snow,0,2012-12-15 12:05:00
5:23 AM,21.2,21.2,100,29.79,1.2,SE,4.6,-,0.01,Snow,Light Snow,140,2012-12-15 12:23:00
5:45 AM,21.2,21.2,100,29.79,1.2,SE,5.8,-,0.01,Snow,Light Snow,140,2012-12-15 12:45:00
5:53 AM,21.9,21.0,96,29.75,1.8,SE,5.8,-,0.01,Snow,Light Snow,130,2012-12-15 12:53:00
6:33 AM,21.2,21.2,100,29.80,2.0,SE,10.4,-,0.01,Snow,Light Snow,140,2012-12-15 13:33:00
6:42 AM,21.2,21.2,100,29.80,1.8,SE,10.4,-,0.01,Snow,Light Snow,130,2012-12-15 13:42:00
7:00 AM,21.2,21.2,100,29.80,3.0,SE,8.1,-,0.00,Snow,Light Snow,140,2012-12-15 14:00:00
7:22 AM,23.0,21.2,93,29.80,1.8,SE,9.2,-,0.00,Snow,Light Snow,130,2012-12-15 14:22:00
7:32 AM,23.0,21.2,93,29.80,0.2,SE,10.4,-,0.00,Fog-Snow,Light Snow,140,2012-12-15 14:32:00
7:53 AM,23.0,23.0,100,29.76,0.2,SE,11.5,-,0.00,Fog-Snow,Light Snow,140,2012-12-15 14:53:00
8:09 AM,23.0,23.0,100,29.81,1.0,SSE,6.9,-,0.00,Snow,Light Snow,150,2012-12-15 15:09:00
8:17 AM,23.0,23.0,100,29.81,0.5,SE,5.8,-,0.01,Fog-Snow,Snow,140,2012-12-15 15:17:00
8:33 AM,23.0,21.2,93,29.81,0.2,SE,6.9,-,0.02,Fog-Snow,Heavy Snow,140,2012-12-15 15:33:00
8:41 AM,23.0,21.2,93,29.81,0.5,SE,8.1,-,0.02,Fog-Snow,Snow,140,2012-12-15 15:41:00
8:53 AM,23.0,23.0,100,29.77,0.8,SSE,8.1,-,0.02,Snow,Light Snow,150,2012-12-15 15:53:00
9:00 AM,23.0,23.0,100,29.81,1.8,SE,8.1,-,0.00,Snow,Light Snow,140,2012-12-15 16:00:00
9:03 AM,23.0,23.0,100,29.81,3.0,SE,8.1,-,0.00,Snow,Light Snow,140,2012-12-15 16:03:00
9:10 AM,23.0,23.0,100,29.81,2.0,SSE,6.9,-,0.00,Snow,Light Snow,150,2012-12-15 16:10:00
9:13 AM,23.0,23.0,100,29.81,1.0,SSE,5.8,-,0.00,Snow,Light Snow,150,2012-12-15 16:13:00
9:18 AM,23.0,23.0,100,29.81,0.8,SE,6.9,-,0.00,Snow,Light Snow,140,2012-12-15 16:18:00
9:25 AM,23.0,23.0,100,29.80,2.0,SE,5.8,-,0.00,Snow,Light Snow,140,2012-12-15 16:25:00
9:34 AM,24.8,23.0,93,29.81,0.8,SE,8.1,-,0.01,Snow,Light Snow,140,2012-12-15 16:34:00
9:48 AM,24.8,23.0,93,29.81,1.0,SE,11.5,-,0.01,Snow,Light Snow,140,2012-12-15 16:48:00
9:53 AM,24.1,23.0,96,29.79,1.5,SE,10.4,-,0.01,Snow,Light Snow,140,2012-12-15 16:53:00
10:07 AM,24.8,23.0,93,29.82,2.0,SE,9.2,-,0.00,Snow,Light Snow,140,2012-12-15 17:07:00
10:16 AM,24.8,23.0,93,29.82,1.5,SE,9.2,-,0.00,Snow,Light Snow,140,2012-12-15 17:16:00
10:32 AM,24.8,23.0,93,29.82,1.5,SE,10.4,-,0.00,Snow,Light Snow,130,2012-12-15 17:32:00
10:41 AM,24.8,23.0,93,29.82,1.2,SE,11.5,-,0.00,Snow,Light Snow,140,2012-12-15 17:41:00
10:53 AM,24.1,23.0,96,29.81,1.5,SE,11.5,-,0.00,Snow,Light Snow,140,2012-12-15 17:53:00
11:15 AM,24.8,23.0,93,29.81,0.8,SE,11.5,-,0.01,Snow,Light Snow,130,2012-12-15 18:15:00
11:33 AM,24.8,24.8,100,29.81,1.0,SE,10.4,-,0.01,Snow,Light Snow,130,2012-12-15 18:33:00
11:51 AM,24.8,23.0,93,29.80,3.0,SE,9.2,-,0.01,Snow,Light Snow,130,2012-12-15 18:51:00
11:53 AM,24.1,23.0,96,29.78,5.0,ESE,9.2,-,0.01,Snow,Light Snow,120,2012-12-15 18:53:00
12:15 PM,24.8,23.0,93,29.79,1.8,SE,11.5,-,0.00,Snow,Light Snow,130,2012-12-15 19:15:00
12:19 PM,24.8,23.0,93,29.79,0.8,SE,11.5,-,0.01,Snow,Light Snow,130,2012-12-15 19:19:00
12:26 PM,24.8,23.0,93,29.79,0.5,ESE,9.2,-,0.01,Fog-Snow,Snow,120,2012-12-15 19:26:00
12:33 PM,24.8,23.0,93,29.79,0.2,ESE,6.9,-,0.03,Fog-Snow,Snow,120,2012-12-15 19:33:00
12:53 PM,25.0,24.1,96,29.75,0.2,SE,5.8,-,0.08,Fog-Snow,Heavy Snow,140,2012-12-15 19:53:00
1:00 PM,24.8,21.2,86,29.78,0.5,SE,3.5,-,0.00,Fog-Snow,Snow,130,2012-12-15 20:00:00
1:05 PM,24.8,21.2,86,29.78,2.0,Calm,Calm,-,0.00,Snow,Light Snow,0,2012-12-15 20:05:00
1:09 PM,24.8,21.2,86,29.78,6.0,Calm,Calm,-,0.00,Snow,Light Snow,0,2012-12-15 20:09:00
1:30 PM,26.6,23.0,86,29.77,1.8,West,6.9,-,0.00,Snow,Light Snow,270,2012-12-15 20:30:00
1:37 PM,24.8,21.2,86,29.77,3.0,SW,3.5,-,0.00,Snow,Light Snow,220,2012-12-15 20:37:00
1:53 PM,25.0,21.0,85,29.75,9.0,South,3.5,-,0.00,,Scattered Clouds,180,2012-12-15 20:53:00
2:53 PM,24.1,21.9,91,29.76,10.0,SE,8.1,-,N/A,,Scattered Clouds,140,2012-12-15 21:53:00
3:27 PM,24.8,21.2,86,29.78,8.0,WNW,8.1,-,0.00,Snow,Light Snow,300,2012-12-15 22:27:00
3:37 PM,24.8,21.2,86,29.78,2.5,WNW,9.2,-,0.00,Snow,Light Snow,300,2012-12-15 22:37:00
3:44 PM,24.8,21.2,86,29.78,1.0,NW,6.9,-,0.01,Snow,Light Snow,310,2012-12-15 22:44:00
3:46 PM,24.8,21.2,86,29.78,0.8,NW,8.1,-,0.01,Snow,Light Snow,310,2012-12-15 22:46:00
3:53 PM,24.1,21.9,91,29.78,0.8,NW,8.1,-,0.01,Snow,Light Snow,320,2012-12-15 22:53:00
3:58 PM,24.8,21.2,86,29.79,0.2,WNW,8.1,-,0.00,Fog-Snow,Heavy Snow,290,2012-12-15 22:58:00
4:11 PM,24.8,21.2,86,29.79,0.2,WNW,9.2,-,0.02,Fog-Snow,Heavy Snow,300,2012-12-15 23:11:00
4:30 PM,23.0,21.2,93,29.78,0.8,WSW,4.6,-,0.03,Snow,Light Snow,250,2012-12-15 23:30:00
4:34 PM,21.2,19.4,93,29.79,1.5,WSW,6.9,-,0.03,Snow,Light Snow,240,2012-12-15 23:34:00
4:53 PM,21.0,19.9,96,29.79,5.0,WSW,8.1,-,0.03,Snow,Light Snow,250,2012-12-15 23:53:00
5:17 PM,21.2,19.4,93,29.79,5.0,West,8.1,-,0.00,Snow,Light Snow,260,2012-12-16 00:17:00
5:53 PM,21.9,19.0,89,29.80,9.0,WNW,6.9,-,0.00,,Overcast,290,2012-12-16 00:53:00
6:43 PM,23.0,19.4,86,29.80,10.0,West,8.1,-,0.00,,Overcast,280,2012-12-16 01:43:00
6:53 PM,21.0,19.0,92,29.80,10.0,WNW,8.1,-,0.00,Snow,Light Snow,290,2012-12-16 01:53:00
7:53 PM,21.9,19.0,89,29.81,10.0,West,9.2,-,0.00,,Overcast,280,2012-12-16 02:53:00
8:53 PM,19.0,16.0,88,29.85,8.0,WNW,4.6,-,0.00,Snow,Light Snow,290,2012-12-16 03:53:00
9:15 PM,12.2,10.4,92,29.84,10.0,West,3.5,-,0.00,,Mostly Cloudy,280,2012-12-16 04:15:00
9:53 PM,12.9,10.9,92,29.87,10.0,West,4.6,-,0.00,,Overcast,270,2012-12-16 04:53:00
10:53 PM,19.9,16.0,85,29.86,10.0,WNW,6.9,-,N/A,,Overcast,300,2012-12-16 05:53:00
11:53 PM,19.9,16.0,85,29.86,10.0,WNW,5.8,-,0.00,,Overcast,290,2012-12-16 06:53:00